Wetterdaten: Mittwoch, 11.12.2013
Datum Zeit Temp. Auen Feucht Auen Luftdruck Regen Richtung Richtung Windben
11.12.2013 00:00 3,9 C 93 % 1036,5 hPa 0,0 mm S-SO 168 3,2 km/h (1 Bft)
11.12.2013 00:05 3,8 C 93 % 1036,4 hPa 0,0 mm S-SO 168 3,2 km/h (1 Bft)
11.12.2013 00:10 3,8 C 93 % 1036,4 hPa 0,0 mm O-SO 109 4,8 km/h (1 Bft)
11.12.2013 00:15 3,9 C 93 % 1036,4 hPa 0,0 mm O 82 4,8 km/h (1 Bft)
11.12.2013 00:20 3,9 C 93 % 1036,3 hPa 0,0 mm SO 143 3,2 km/h (1 Bft)
11.12.2013 00:25 3,9 C 93 % 1036,2 hPa 0,0 mm SO 131 0,0 km/h (0 Bft)
11.12.2013 00:30 3,8 C 93 % 1036,2 hPa 0,0 mm O-SO 121 0,0 km/h (0 Bft)
11.12.2013 00:35 3,8 C 93 % 1036,2 hPa 0,0 mm O-SO 122 0,0 km/h (0 Bft)
11.12.2013 00:40 3,8 C 93 % 1036,1 hPa 0,0 mm SO 127 0,0 km/h (0 Bft)
11.12.2013 00:45 3,8 C 93 % 1036,1 hPa 0,0 mm SO 137 0,0 km/h (0 Bft)
11.12.2013 00:50 3,8 C 93 % 1036,1 hPa 0,0 mm O-SO 115 0,0 km/h (0 Bft)
11.12.2013 00:55 3,7 C 93 % 1035,9 hPa 0,0 mm O-SO 115 0,0 km/h (0 Bft)
11.12.2013 01:00 3,5 C 93 % 1035,8 hPa 0,0 mm O-SO 115 0,0 km/h (0 Bft)
11.12.2013 01:05 3,4 C 93 % 1035,8 hPa 0,0 mm O-SO 115 0,0 km/h (0 Bft)
11.12.2013 01:10 3,2 C 93 % 1035,8 hPa 0,0 mm O-SO 115 0,0 km/h (0 Bft)
11.12.2013 01:15 3,2 C 93 % 1035,8 hPa 0,0 mm O-SO 115 0,0 km/h (0 Bft)
11.12.2013 01:20 3,2 C 93 % 1035,8 hPa 0,0 mm O-SO 115 0,0 km/h (0 Bft)
11.12.2013 01:25 3,2 C 93 % 1035,9 hPa 0,0 mm O-SO 115 0,0 km/h (0 Bft)
11.12.2013 01:30 3,2 C 93 % 1035,9 hPa 0,0 mm O-SO 115 0,0 km/h (0 Bft)
11.12.2013 01:35 3,3 C 93 % 1035,9 hPa 0,0 mm O-SO 115 0,0 km/h (0 Bft)
11.12.2013 01:40 3,2 C 93 % 1036,0 hPa 0,0 mm O-SO 115 0,0 km/h (0 Bft)
11.12.2013 01:45 3,3 C 93 % 1036,0 hPa 0,0 mm O-SO 115 0,0 km/h (0 Bft)
11.12.2013 01:50 3,2 C 93 % 1035,9 hPa 0,0 mm O-SO 115 0,0 km/h (0 Bft)
11.12.2013 01:55 3,3 C 93 % 1036,0 hPa 0,0 mm O-SO 115 0,0 km/h (0 Bft)
11.12.2013 02:00 3,3 C 93 % 1036,0 hPa 0,0 mm O-SO 107 0,0 km/h (0 Bft)
11.12.2013 02:05 3,3 C 93 % 1036,0 hPa 0,0 mm O-SO 107 0,0 km/h (0 Bft)
11.12.2013 02:10 3,3 C 93 % 1036,0 hPa 0,0 mm O-SO 107 0,0 km/h (0 Bft)
11.12.2013 02:15 3,3 C 93 % 1036,1 hPa 0,0 mm SW 216 0,0 km/h (0 Bft)
11.12.2013 02:20 3,3 C 93 % 1036,1 hPa 0,0 mm SW 225 0,0 km/h (0 Bft)
11.12.2013 02:25 3,3 C 93 % 1036,1 hPa 0,0 mm SW 225 0,0 km/h (0 Bft)
11.12.2013 02:30 3,2 C 93 % 1036,1 hPa 0,0 mm W 274 0,0 km/h (0 Bft)
11.12.2013 02:35 2,9 C 93 % 1036,1 hPa 0,0 mm W 273 6,4 km/h (2 Bft)
11.12.2013 02:40 2,9 C 93 % 1036,2 hPa 0,0 mm W 273 4,8 km/h (1 Bft)
11.12.2013 02:45 2,8 C 93 % 1036,1 hPa 0,0 mm W 272 3,2 km/h (1 Bft)
11.12.2013 02:50 2,9 C 93 % 1036,3 hPa 0,0 mm W 273 4,8 km/h (1 Bft)
11.12.2013 02:55 2,9 C 93 % 1036,3 hPa 0,0 mm W 270 6,4 km/h (2 Bft)
11.12.2013 03:00 2,9 C 93 % 1036,2 hPa 0,0 mm W 276 3,2 km/h (1 Bft)
11.12.2013 03:05 2,8 C 93 % 1036,3 hPa 0,0 mm W 276 3,2 km/h (1 Bft)
11.12.2013 03:10 2,8 C 93 % 1036,3 hPa 0,0 mm W 276 3,2 km/h (1 Bft)
11.12.2013 03:15 2,8 C 93 % 1036,3 hPa 0,0 mm W 276 3,2 km/h (1 Bft)
11.12.2013 03:20 2,8 C 93 % 1036,3 hPa 0,0 mm W 270 3,2 km/h (1 Bft)
11.12.2013 03:25 2,8 C 93 % 1036,4 hPa 0,0 mm W 270 3,2 km/h (1 Bft)
11.12.2013 03:30 2,8 C 93 % 1036,4 hPa 0,0 mm N 0 0,0 km/h (0 Bft)
11.12.2013 03:35 2,8 C 93 % 1036,4 hPa 0,0 mm N 0 0,0 km/h (0 Bft)
11.12.2013 03:40 2,8 C 93 % 1036,5 hPa 0,0 mm W 270 1,6 km/h (1 Bft)
11.12.2013 03:45 2,8 C 93 % 1036,5 hPa 0,0 mm N 0 0,0 km/h (0 Bft)
11.12.2013 03:50 2,8 C 93 % 1036,5 hPa 0,0 mm N 0 0,0 km/h (0 Bft)
11.12.2013 03:55 2,8 C 93 % 1036,6 hPa 0,0 mm W 270 1,6 km/h (1 Bft)
11.12.2013 04:00 2,8 C 93 % 1036,6 hPa 0,0 mm W 270 1,6 km/h (1 Bft)
11.12.2013 04:05 2,8 C 93 % 1036,6 hPa 0,0 mm N 0 0,0 km/h (0 Bft)
11.12.2013 04:10 2,8 C 93 % 1036,6 hPa 0,0 mm W-SW 247 6,4 km/h (2 Bft)
11.12.2013 04:15 2,8 C 93 % 1036,6 hPa 0,0 mm O-NO 67 3,2 km/h (1 Bft)
11.12.2013 04:20 2,8 C 93 % 1036,6 hPa 0,0 mm NO 45 6,4 km/h (2 Bft)
11.12.2013 04:25 2,8 C 93 % 1036,6 hPa 0,0 mm NO 45 6,4 km/h (2 Bft)
11.12.2013 04:30 2,7 C 93 % 1036,5 hPa 0,0 mm O-NO 67 8,0 km/h (2 Bft)
11.12.2013 04:35 2,8 C 93 % 1036,4 hPa 0,0 mm O 90 4,8 km/h (1 Bft)
11.12.2013 04:40 2,8 C 93 % 1036,4 hPa 0,0 mm O-SO 112 8,0 km/h (2 Bft)
11.12.2013 04:45 2,8 C 93 % 1036,4 hPa 0,0 mm O-SO 112 6,4 km/h (2 Bft)
11.12.2013 04:50 2,7 C 93 % 1036,5 hPa 0,0 mm O-SO 112 9,7 km/h (2 Bft)
11.12.2013 04:55 2,8 C 93 % 1036,4 hPa 0,0 mm O 90 8,0 km/h (2 Bft)
11.12.2013 05:00 2,8 C 93 % 1036,5 hPa 0,0 mm O-SO 112 4,8 km/h (1 Bft)
11.12.2013 05:05 2,8 C 93 % 1036,5 hPa 0,0 mm O-SO 112 3,2 km/h (1 Bft)
11.12.2013 05:10 2,8 C 93 % 1036,7 hPa 0,0 mm O-SO 112 3,2 km/h (1 Bft)
11.12.2013 05:15 2,8 C 93 % 1036,7 hPa 0,0 mm O-SO 112 3,2 km/h (1 Bft)
11.12.2013 05:20 2,8 C 93 % 1036,6 hPa 0,0 mm O 90 4,8 km/h (1 Bft)
11.12.2013 05:25 2,8 C 93 % 1036,6 hPa 0,0 mm O-NO 67 6,4 km/h (2 Bft)
11.12.2013 05:30 2,8 C 93 % 1036,7 hPa 0,0 mm NO 45 6,4 km/h (2 Bft)
11.12.2013 05:35 2,8 C 93 % 1036,7 hPa 0,0 mm O-NO 67 6,4 km/h (2 Bft)
11.12.2013 05:40 2,8 C 93 % 1036,7 hPa 0,0 mm N-NO 22 4,8 km/h (1 Bft)
11.12.2013 05:45 2,8 C 93 % 1036,6 hPa 0,0 mm NO 45 4,8 km/h (1 Bft)
11.12.2013 05:50 2,8 C 93 % 1036,6 hPa 0,0 mm O-NO 67 6,4 km/h (2 Bft)
11.12.2013 05:55 2,9 C 94 % 1036,7 hPa 0,0 mm O-NO 67 1,6 km/h (1 Bft)
11.12.2013 06:00 2,9 C 93 % 1036,7 hPa 0,0 mm SO 135 4,8 km/h (1 Bft)
11.12.2013 06:05 2,9 C 94 % 1036,7 hPa 0,0 mm SO 135 3,2 km/h (1 Bft)
11.12.2013 06:10 2,9 C 93 % 1036,6 hPa 0,0 mm SO 135 3,2 km/h (1 Bft)
11.12.2013 06:15 2,8 C 94 % 1036,7 hPa 0,0 mm SO 135 3,2 km/h (1 Bft)
11.12.2013 06:20 2,7 C 94 % 1036,6 hPa 0,0 mm S 180 4,8 km/h (1 Bft)
11.12.2013 06:25 2,6 C 94 % 1036,6 hPa 0,0 mm S-SO 157 4,8 km/h (1 Bft)
11.12.2013 06:30 2,7 C 94 % 1036,6 hPa 0,0 mm S 180 4,8 km/h (1 Bft)
11.12.2013 06:35 2,7 C 94 % 1036,6 hPa 0,0 mm N 0 0,0 km/h (0 Bft)
11.12.2013 06:40 2,7 C 93 % 1036,5 hPa 0,0 mm N 0 0,0 km/h (0 Bft)
11.12.2013 06:45 2,7 C 93 % 1036,5 hPa 0,0 mm N 0 0,0 km/h (0 Bft)
11.12.2013 06:50 2,7 C 93 % 1036,5 hPa 0,0 mm S 180 4,8 km/h (1 Bft)
11.12.2013 06:55 2,6 C 93 % 1036,5 hPa 0,0 mm S 180 4,8 km/h (1 Bft)
11.12.2013 07:00 2,6 C 93 % 1036,4 hPa 0,0 mm S 180 4,8 km/h (1 Bft)
11.12.2013 07:05 2,6 C 93 % 1036,4 hPa 0,0 mm S 180 4,8 km/h (1 Bft)
11.12.2013 07:10 2,6 C 93 % 1036,3 hPa 0,0 mm S 180 4,8 km/h (1 Bft)
11.12.2013 07:15 2,6 C 93 % 1036,3 hPa 0,0 mm S 180 6,4 km/h (2 Bft)
11.12.2013 07:20 2,6 C 93 % 1036,3 hPa 0,0 mm S-SO 157 4,8 km/h (1 Bft)
11.12.2013 07:25 2,6 C 93 % 1036,3 hPa 0,0 mm S 180 4,8 km/h (1 Bft)
11.12.2013 07:30 2,6 C 93 % 1036,4 hPa 0,0 mm S 180 3,2 km/h (1 Bft)
11.12.2013 07:35 2,6 C 93 % 1036,4 hPa 0,0 mm S 180 4,8 km/h (1 Bft)
11.12.2013 07:40 2,6 C 93 % 1036,5 hPa 0,0 mm S 180 3,2 km/h (1 Bft)
11.12.2013 07:45 2,6 C 93 % 1036,4 hPa 0,0 mm S 180 4,8 km/h (1 Bft)
11.12.2013 07:50 2,6 C 93 % 1036,5 hPa 0,0 mm S 180 3,2 km/h (1 Bft)
11.12.2013 07:55 2,6 C 93 % 1036,4 hPa 0,0 mm S 180 1,6 km/h (1 Bft)
11.12.2013 08:00 2,6 C 93 % 1036,5 hPa 0,0 mm N 0 0,0 km/h (0 Bft)
11.12.2013 08:05 2,6 C 93 % 1036,4 hPa 0,0 mm N 0 0,0 km/h (0 Bft)
11.12.2013 08:10 2,7 C 93 % 1036,4 hPa 0,0 mm N 0 0,0 km/h (0 Bft)
11.12.2013 08:15 2,7 C 93 % 1036,5 hPa 0,0 mm N 0 0,0 km/h (0 Bft)
11.12.2013 08:20 2,7 C 93 % 1036,6 hPa 0,0 mm N 0 0,0 km/h (0 Bft)
11.12.2013 08:25 2,7 C 93 % 1036,6 hPa 0,0 mm S 180 1,6 km/h (1 Bft)
11.12.2013 08:30 2,7 C 93 % 1036,5 hPa 0,0 mm N 0 0,0 km/h (0 Bft)
11.12.2013 08:35 2,7 C 93 % 1036,5 hPa 0,0 mm S 180 1,6 km/h (1 Bft)
11.12.2013 08:40 2,7 C 93 % 1036,6 hPa 0,0 mm S 180 1,6 km/h (1 Bft)
11.12.2013 08:45 2,7 C 93 % 1036,6 hPa 0,0 mm N 0 0,0 km/h (0 Bft)
11.12.2013 08:50 2,7 C 93 % 1036,7 hPa 0,0 mm N 0 0,0 km/h (0 Bft)
11.12.2013 08:55 2,7 C 93 % 1036,9 hPa 0,0 mm N 0 0,0 km/h (0 Bft)
11.12.2013 09:00 2,7 C 93 % 1036,8 hPa 0,0 mm S 180 1,6 km/h (1 Bft)
11.12.2013 09:05 2,7 C 93 % 1036,8 hPa 0,0 mm S 180 1,6 km/h (1 Bft)
11.12.2013 09:10 2,7 C 93 % 1036,8 hPa 0,0 mm S 180 4,8 km/h (1 Bft)
11.12.2013 09:15 2,7 C 93 % 1036,9 hPa 0,0 mm S 180 3,2 km/h (1 Bft)
11.12.2013 09:20 2,8 C 93 % 1036,8 hPa 0,0 mm NO 45 6,4 km/h (2 Bft)
11.12.2013 09:25 2,8 C 93 % 1036,9 hPa 0,0 mm O 90 4,8 km/h (1 Bft)
11.12.2013 09:30 2,9 C 93 % 1037,0 hPa 0,0 mm O 90 4,8 km/h (1 Bft)
11.12.2013 09:35 2,9 C 93 % 1037,1 hPa 0,0 mm O 90 4,8 km/h (1 Bft)
11.12.2013 09:40 2,9 C 93 % 1037,1 hPa 0,0 mm O 90 8,0 km/h (2 Bft)
11.12.2013 09:45 2,9 C 93 % 1037,0 hPa 0,0 mm O 90 4,8 km/h (1 Bft)
11.12.2013 09:50 3,0 C 93 % 1036,9 hPa 0,0 mm O-NO 67 4,8 km/h (1 Bft)
11.12.2013 09:55 3,0 C 93 % 1036,8 hPa 0,0 mm SO 135 6,4 km/h (2 Bft)
11.12.2013 10:00 3,1 C 93 % 1036,8 hPa 0,0 mm O-SO 112 8,0 km/h (2 Bft)
11.12.2013 10:05 2,9 C 93 % 1036,8 hPa 0,0 mm SO 135 6,4 km/h (2 Bft)
11.12.2013 10:10 2,9 C 93 % 1036,9 hPa 0,0 mm O 90 4,8 km/h (1 Bft)
11.12.2013 10:15 2,9 C 93 % 1036,9 hPa 0,0 mm O-NO 67 4,8 km/h (1 Bft)
11.12.2013 10:20 2,9 C 93 % 1036,9 hPa 0,0 mm O 90 8,0 km/h (2 Bft)
11.12.2013 10:25 2,9 C 93 % 1036,9 hPa 0,0 mm O 90 3,2 km/h (1 Bft)
11.12.2013 10:30 2,9 C 93 % 1036,8 hPa 0,0 mm O 90 8,0 km/h (2 Bft)
11.12.2013 10:35 2,9 C 93 % 1036,9 hPa 0,0 mm O 90 8,0 km/h (2 Bft)
11.12.2013 10:40 2,9 C 93 % 1036,8 hPa 0,0 mm O 90 6,4 km/h (2 Bft)
11.12.2013 10:45 2,9 C 93 % 1036,8 hPa 0,0 mm O 90 8,0 km/h (2 Bft)
11.12.2013 10:50 2,8 C 93 % 1036,8 hPa 0,0 mm O-NO 67 4,8 km/h (1 Bft)
11.12.2013 10:55 2,8 C 93 % 1036,8 hPa 0,0 mm O-NO 67 6,4 km/h (2 Bft)
11.12.2013 11:00 2,8 C 93 % 1036,7 hPa 0,0 mm O-NO 67 3,2 km/h (1 Bft)
11.12.2013 11:05 2,8 C 93 % 1036,5 hPa 0,0 mm O-SO 112 4,8 km/h (1 Bft)
11.12.2013 11:10 2,8 C 93 % 1036,5 hPa 0,0 mm O-SO 112 3,2 km/h (1 Bft)
11.12.2013 11:15 2,9 C 93 % 1036,6 hPa 0,0 mm O 90 3,2 km/h (1 Bft)
11.12.2013 11:20 2,8 C 93 % 1036,5 hPa 0,0 mm O 90 4,8 km/h (1 Bft)
11.12.2013 11:25 2,9 C 93 % 1036,5 hPa 0,0 mm O-SO 112 6,4 km/h (2 Bft)
11.12.2013 11:30 2,9 C 93 % 1036,5 hPa 0,0 mm O-SO 112 8,0 km/h (2 Bft)
11.12.2013 11:35 2,9 C 93 % 1036,4 hPa 0,0 mm SO 135 6,4 km/h (2 Bft)
11.12.2013 11:40 3,1 C 93 % 1036,3 hPa 0,0 mm SO 135 8,0 km/h (2 Bft)
11.12.2013 11:45 3,1 C 93 % 1036,3 hPa 0,0 mm S-SO 157 8,0 km/h (2 Bft)
11.12.2013 11:50 3,1 C 93 % 1036,3 hPa 0,0 mm SO 135 8,0 km/h (2 Bft)
11.12.2013 11:55 3,2 C 93 % 1036,3 hPa 0,0 mm S-SO 157 6,4 km/h (2 Bft)
11.12.2013 12:00 3,1 C 93 % 1036,3 hPa 0,0 mm N-NO 22 6,4 km/h (2 Bft)
11.12.2013 12:05 3,2 C 93 % 1036,3 hPa 0,0 mm O-SO 112 8,0 km/h (2 Bft)
11.12.2013 12:10 3,2 C 93 % 1036,1 hPa 0,0 mm SO 135 6,4 km/h (2 Bft)
11.12.2013 12:15 3,2 C 93 % 1036,3 hPa 0,0 mm SO 135 6,4 km/h (2 Bft)
11.12.2013 12:20 3,2 C 93 % 1036,1 hPa 0,0 mm O-SO 112 6,4 km/h (2 Bft)
11.12.2013 12:25 3,1 C 93 % 1036,3 hPa 0,0 mm O-SO 112 4,8 km/h (1 Bft)
11.12.2013 12:30 3,1 C 93 % 1036,3 hPa 0,0 mm O 90 8,0 km/h (2 Bft)
11.12.2013 12:35 3,2 C 93 % 1036,2 hPa 0,0 mm O-SO 112 9,7 km/h (2 Bft)
11.12.2013 12:40 3,2 C 93 % 1036,3 hPa 0,0 mm SO 135 4,8 km/h (1 Bft)
11.12.2013 12:45 3,3 C 93 % 1036,2 hPa 0,0 mm O 90 6,4 km/h (2 Bft)
11.12.2013 12:50 3,3 C 93 % 1036,2 hPa 0,0 mm S-SO 157 6,4 km/h (2 Bft)
11.12.2013 12:55 3,3 C 93 % 1036,2 hPa 0,0 mm S-SO 157 6,4 km/h (2 Bft)
11.12.2013 13:00 3,4 C 93 % 1036,1 hPa 0,0 mm O-SO 112 6,4 km/h (2 Bft)
11.12.2013 13:05 3,4 C 93 % 1036,1 hPa 0,0 mm O-NO 67 6,4 km/h (2 Bft)
11.12.2013 13:10 3,3 C 93 % 1036,0 hPa 0,0 mm SO 135 8,0 km/h (2 Bft)
11.12.2013 13:15 3,4 C 93 % 1035,9 hPa 0,0 mm SO 135 9,7 km/h (2 Bft)
11.12.2013 13:20 3,4 C 93 % 1035,9 hPa 0,0 mm O-SO 112 9,7 km/h (2 Bft)
11.12.2013 13:25 3,3 C 93 % 1035,8 hPa 0,0 mm SO 135 8,0 km/h (2 Bft)
11.12.2013 13:30 3,3 C 93 % 1035,7 hPa 0,0 mm SO 135 8,0 km/h (2 Bft)
11.12.2013 13:35 3,3 C 93 % 1035,7 hPa 0,0 mm SO 135 9,7 km/h (2 Bft)
11.12.2013 13:40 3,4 C 93 % 1035,6 hPa 0,0 mm SO 135 8,0 km/h (2 Bft)
11.12.2013 13:45 3,4 C 93 % 1035,6 hPa 0,0 mm O-NO 67 8,0 km/h (2 Bft)
11.12.2013 13:50 3,4 C 93 % 1035,6 hPa 0,0 mm O-SO 112 8,0 km/h (2 Bft)
11.12.2013 13:55 3,3 C 93 % 1035,6 hPa 0,0 mm O-NO 67 6,4 km/h (2 Bft)
11.12.2013 14:00 3,3 C 93 % 1035,6 hPa 0,0 mm O-NO 67 4,8 km/h (1 Bft)
11.12.2013 14:05 3,3 C 93 % 1035,5 hPa 0,0 mm O 90 6,4 km/h (2 Bft)
11.12.2013 14:10 3,3 C 93 % 1035,4 hPa 0,0 mm N 360 4,8 km/h (1 Bft)
11.12.2013 14:15 3,3 C 93 % 1035,4 hPa 0,0 mm O 90 4,8 km/h (1 Bft)
11.12.2013 14:20 3,2 C 93 % 1035,3 hPa 0,0 mm O-NO 67 3,2 km/h (1 Bft)
11.12.2013 14:25 3,2 C 93 % 1035,2 hPa 0,0 mm O-NO 67 4,8 km/h (1 Bft)
11.12.2013 14:30 3,3 C 93 % 1034,5 hPa 0,0 mm NO 45 4,8 km/h (1 Bft)
11.12.2013 14:35 3,2 C 93 % 1035,2 hPa 0,0 mm NO 45 3,2 km/h (1 Bft)
11.12.2013 14:40 3,2 C 93 % 1035,2 hPa 0,0 mm NO 45 4,8 km/h (1 Bft)
11.12.2013 14:45 3,2 C 93 % 1035,2 hPa 0,0 mm N-NO 22 4,8 km/h (1 Bft)
11.12.2013 14:50 3,2 C 93 % 1035,3 hPa 0,0 mm NO 45 4,8 km/h (1 Bft)
11.12.2013 14:55 3,2 C 93 % 1035,3 hPa 0,0 mm NO 45 4,8 km/h (1 Bft)
11.12.2013 15:00 3,1 C 93 % 1035,3 hPa 0,0 mm NO 45 4,8 km/h (1 Bft)
11.12.2013 15:05 3,1 C 93 % 1035,3 hPa 0,0 mm N 360 4,8 km/h (1 Bft)
11.12.2013 15:10 3,1 C 93 % 1035,3 hPa 0,0 mm NO 45 3,2 km/h (1 Bft)
11.12.2013 15:15 3,0 C 93 % 1035,3 hPa 0,0 mm NO 45 3,2 km/h (1 Bft)
11.12.2013 15:20 3,0 C 93 % 1035,2 hPa 0,0 mm O 90 4,8 km/h (1 Bft)
11.12.2013 15:25 2,9 C 93 % 1035,3 hPa 0,0 mm NO 45 4,8 km/h (1 Bft)
11.12.2013 15:30 2,8 C 93 % 1035,3 hPa 0,0 mm NO 45 3,2 km/h (1 Bft)
11.12.2013 15:35 2,8 C 93 % 1035,2 hPa 0,0 mm NO 45 3,2 km/h (1 Bft)
11.12.2013 15:40 2,8 C 93 % 1035,2 hPa 0,0 mm O-SO 112 3,2 km/h (1 Bft)
11.12.2013 15:45 2,8 C 93 % 1035,3 hPa 0,0 mm O-SO 112 1,6 km/h (1 Bft)
11.12.2013 15:50 2,8 C 93 % 1035,3 hPa 0,0 mm O-NO 67 4,8 km/h (1 Bft)
11.12.2013 15:55 2,7 C 93 % 1035,2 hPa 0,0 mm O-NO 67 4,8 km/h (1 Bft)
11.12.2013 16:00 2,7 C 93 % 1035,2 hPa 0,0 mm N-NO 22 4,8 km/h (1 Bft)
11.12.2013 16:05 2,7 C 93 % 1035,3 hPa 0,0 mm N-NO 22 3,2 km/h (1 Bft)
11.12.2013 16:10 2,7 C 93 % 1035,2 hPa 0,0 mm N 360 6,4 km/h (2 Bft)
11.12.2013 16:15 2,7 C 93 % 1035,2 hPa 0,0 mm O-NO 67 4,8 km/h (1 Bft)
11.12.2013 16:20 2,7 C 93 % 1035,4 hPa 0,0 mm O-NO 67 3,2 km/h (1 Bft)
11.12.2013 16:25 2,7 C 93 % 1035,4 hPa 0,0 mm O-NO 67 6,4 km/h (2 Bft)
11.12.2013 16:30 2,6 C 93 % 1035,4 hPa 0,0 mm SO 135 4,8 km/h (1 Bft)
11.12.2013 16:35 2,6 C 93 % 1035,5 hPa 0,0 mm SO 135 8,0 km/h (2 Bft)
11.12.2013 16:40 2,6 C 94 % 1035,5 hPa 0,0 mm S-SO 157 4,8 km/h (1 Bft)
11.12.2013 16:45 2,6 C 94 % 1035,5 hPa 0,0 mm S-SO 157 4,8 km/h (1 Bft)
11.12.2013 16:50 2,6 C 94 % 1035,6 hPa 0,0 mm S-SO 157 6,4 km/h (2 Bft)
11.12.2013 16:55 2,7 C 93 % 1035,6 hPa 0,0 mm O-NO 67 8,0 km/h (2 Bft)
11.12.2013 17:00 2,8 C 93 % 1035,5 hPa 0,0 mm S-SO 157 3,2 km/h (1 Bft)
11.12.2013 17:05 2,8 C 93 % 1035,5 hPa 0,0 mm S-SO 157 4,8 km/h (1 Bft)
11.12.2013 17:10 2,8 C 93 % 1035,4 hPa 0,0 mm SO 135 3,2 km/h (1 Bft)
11.12.2013 17:15 2,8 C 93 % 1035,5 hPa 0,0 mm SO 135 3,2 km/h (1 Bft)
11.12.2013 17:20 2,8 C 93 % 1035,4 hPa 0,0 mm O-SO 112 3,2 km/h (1 Bft)
11.12.2013 17:25 2,7 C 93 % 1035,5 hPa 0,0 mm O-SO 112 3,2 km/h (1 Bft)
11.12.2013 17:30 2,6 C 94 % 1035,5 hPa 0,0 mm SO 135 3,2 km/h (1 Bft)
11.12.2013 17:35 2,6 C 94 % 1035,5 hPa 0,0 mm S-SO 157 6,4 km/h (2 Bft)
11.12.2013 17:40 2,5 C 93 % 1035,5 hPa 0,0 mm S 180 8,0 km/h (2 Bft)
11.12.2013 17:45 2,5 C 93 % 1035,5 hPa 0,0 mm S 180 3,2 km/h (1 Bft)
11.12.2013 17:50 2,6 C 94 % 1035,5 hPa 0,0 mm S 180 3,2 km/h (1 Bft)
11.12.2013 17:55 2,6 C 94 % 1035,5 hPa 0,0 mm S 180 1,6 km/h (1 Bft)
11.12.2013 18:00 2,7 C 93 % 1035,6 hPa 0,0 mm S 180 3,2 km/h (1 Bft)
11.12.2013 18:05 2,7 C 93 % 1035,5 hPa 0,0 mm O 90 4,8 km/h (1 Bft)
11.12.2013 18:10 2,8 C 93 % 1035,5 hPa 0,0 mm O-NO 67 8,0 km/h (2 Bft)
11.12.2013 18:15 2,7 C 93 % 1035,4 hPa 0,0 mm O-NO 67 8,0 km/h (2 Bft)
11.12.2013 18:20 2,7 C 93 % 1035,5 hPa 0,0 mm O-SO 112 4,8 km/h (1 Bft)
11.12.2013 18:25 2,7 C 93 % 1035,4 hPa 0,0 mm O 90 4,8 km/h (1 Bft)
11.12.2013 18:30 2,7 C 93 % 1035,5 hPa 0,0 mm O-SO 112 8,0 km/h (2 Bft)
11.12.2013 18:35 2,7 C 94 % 1035,5 hPa 0,0 mm O-SO 112 3,2 km/h (1 Bft)
11.12.2013 18:40 2,7 C 94 % 1035,5 hPa 0,0 mm O-NO 67 6,4 km/h (2 Bft)
11.12.2013 18:45 2,6 C 94 % 1035,5 hPa 0,0 mm O 90 6,4 km/h (2 Bft)
11.12.2013 18:50 2,6 C 94 % 1035,4 hPa 0,0 mm O-SO 112 6,4 km/h (2 Bft)
11.12.2013 18:55 2,6 C 94 % 1035,5 hPa 0,0 mm O-NO 67 4,8 km/h (1 Bft)
11.12.2013 19:00 2,6 C 94 % 1035,5 hPa 0,0 mm O 90 8,0 km/h (2 Bft)
11.12.2013 19:05 2,5 C 93 % 1035,4 hPa 0,0 mm O 90 4,8 km/h (1 Bft)
11.12.2013 19:10 2,4 C 93 % 1035,4 hPa 0,0 mm O-SO 112 4,8 km/h (1 Bft)
11.12.2013 19:15 2,3 C 94 % 1035,4 hPa 0,0 mm O-SO 112 3,2 km/h (1 Bft)
11.12.2013 19:20 2,3 C 94 % 1035,4 hPa 0,0 mm O-SO 112 3,2 km/h (1 Bft)
11.12.2013 19:25 2,4 C 94 % 1035,2 hPa 0,0 mm SO 135 4,8 km/h (1 Bft)
11.12.2013 19:30 2,4 C 93 % 1035,2 hPa 0,0 mm SO 135 1,6 km/h (1 Bft)
11.12.2013 19:35 2,5 C 93 % 1035,2 hPa 0,0 mm SO 135 1,6 km/h (1 Bft)
11.12.2013 19:40 2,4 C 94 % 1035,2 hPa 0,0 mm S-SO 157 3,2 km/h (1 Bft)
11.12.2013 19:45 2,3 C 94 % 1035,2 hPa 0,0 mm S-SO 157 1,6 km/h (1 Bft)
11.12.2013 19:50 2,3 C 94 % 1035,2 hPa 0,0 mm S-SO 157 3,2 km/h (1 Bft)
11.12.2013 19:55 2,4 C 94 % 1035,3 hPa 0,0 mm S-SO 157 3,2 km/h (1 Bft)
11.12.2013 20:00 2,4 C 94 % 1035,3 hPa 0,0 mm SO 135 4,8 km/h (1 Bft)
11.12.2013 20:05 2,3 C 94 % 1035,3 hPa 0,0 mm SO 134 0,0 km/h (0 Bft)
11.12.2013 20:10 2,3 C 94 % 1035,3 hPa 0,0 mm SO 134 3,2 km/h (1 Bft)
11.12.2013 20:15 2,4 C 94 % 1035,2 hPa 0,0 mm SO 134 1,6 km/h (1 Bft)
11.12.2013 20:20 2,4 C 94 % 1035,3 hPa 0,0 mm SO 146 4,8 km/h (1 Bft)
11.12.2013 20:25 2,4 C 94 % 1035,2 hPa 0,0 mm S-SO 147 4,8 km/h (1 Bft)
11.12.2013 20:30 2,4 C 93 % 1035,3 hPa 0,0 mm S-SO 147 3,2 km/h (1 Bft)
11.12.2013 20:35 2,4 C 94 % 1035,2 hPa 0,0 mm S 172 4,8 km/h (1 Bft)
11.12.2013 20:40 2,4 C 94 % 1035,2 hPa 0,0 mm S 169 4,8 km/h (1 Bft)
11.12.2013 20:45 2,4 C 94 % 1035,2 hPa 0,0 mm S-SO 157 6,4 km/h (2 Bft)
11.12.2013 20:50 2,4 C 94 % 1035,2 hPa 0,0 mm S-SO 156 3,2 km/h (1 Bft)
11.12.2013 20:55 2,4 C 94 % 1035,2 hPa 0,0 mm S-SO 156 4,8 km/h (1 Bft)
11.12.2013 21:00 2,3 C 94 % 1035,2 hPa 0,0 mm S-SO 150 6,4 km/h (2 Bft)
11.12.2013 21:05 2,3 C 94 % 1035,2 hPa 0,0 mm S-SO 150 4,8 km/h (1 Bft)
11.12.2013 21:10 2,3 C 94 % 1035,4 hPa 0,0 mm S-SO 151 3,2 km/h (1 Bft)
11.12.2013 21:15 2,2 C 94 % 1035,3 hPa 0,0 mm S-SO 151 0,0 km/h (0 Bft)
11.12.2013 21:20 2,2 C 94 % 1035,4 hPa 0,0 mm O-SO 102 4,8 km/h (1 Bft)
11.12.2013 21:25 2,3 C 94 % 1035,5 hPa 0,0 mm O-NO 72 6,4 km/h (2 Bft)
11.12.2013 21:30 2,2 C 94 % 1035,5 hPa 0,0 mm O 101 3,2 km/h (1 Bft)
11.12.2013 21:35 2,2 C 94 % 1035,5 hPa 0,0 mm O-NO 71 4,8 km/h (1 Bft)
11.12.2013 21:40 2,3 C 94 % 1035,5 hPa 0,0 mm O 93 8,0 km/h (2 Bft)
11.12.2013 21:45 2,2 C 94 % 1035,6 hPa 0,0 mm O 98 8,0 km/h (2 Bft)
11.12.2013 21:50 2,2 C 94 % 1035,6 hPa 0,0 mm O 88 8,0 km/h (2 Bft)
11.12.2013 21:55 2,2 C 94 % 1035,5 hPa 0,0 mm SO 126 6,4 km/h (2 Bft)
11.12.2013 22:00 2,2 C 94 % 1035,5 hPa 0,0 mm O-SO 111 4,8 km/h (1 Bft)
11.12.2013 22:05 2,2 C 94 % 1035,4 hPa 0,0 mm O 89 9,7 km/h (2 Bft)
11.12.2013 22:10 2,2 C 94 % 1035,3 hPa 0,0 mm O 97 8,0 km/h (2 Bft)
11.12.2013 22:15 2,1 C 94 % 1035,4 hPa 0,0 mm O-SO 105 8,0 km/h (2 Bft)
11.12.2013 22:20 2,1 C 94 % 1035,4 hPa 0,0 mm O-SO 111 9,7 km/h (2 Bft)
11.12.2013 22:25 2,0 C 94 % 1035,4 hPa 0,0 mm SO 139 9,7 km/h (2 Bft)
11.12.2013 22:30 2,0 C 94 % 1035,3 hPa 0,0 mm O 90 6,4 km/h (2 Bft)
11.12.2013 22:35 1,9 C 94 % 1035,3 hPa 0,0 mm O-NO 59 8,0 km/h (2 Bft)
11.12.2013 22:40 1,9 C 94 % 1035,3 hPa 0,0 mm O-SO 112 8,0 km/h (2 Bft)
11.12.2013 22:45 1,8 C 94 % 1035,3 hPa 0,0 mm O-SO 115 4,8 km/h (1 Bft)
11.12.2013 22:50 1,8 C 94 % 1035,4 hPa 0,0 mm O 97 4,8 km/h (1 Bft)
11.12.2013 22:55 1,8 C 94 % 1035,3 hPa 0,0 mm O-SO 103 3,2 km/h (1 Bft)
11.12.2013 23:00 1,8 C 94 % 1035,3 hPa 0,0 mm O-SO 121 3,2 km/h (1 Bft)
11.12.2013 23:05 1,8 C 94 % 1035,3 hPa 0,0 mm O-SO 121 1,6 km/h (1 Bft)
11.12.2013 23:10 1,8 C 94 % 1035,3 hPa 0,0 mm O 81 4,8 km/h (1 Bft)
11.12.2013 23:15 1,8 C 94 % 1035,4 hPa 0,0 mm O-NO 65 4,8 km/h (1 Bft)
11.12.2013 23:20 1,8 C 94 % 1035,3 hPa 0,0 mm O-NO 63 4,8 km/h (1 Bft)
11.12.2013 23:25 1,8 C 94 % 1035,3 hPa 0,0 mm O 87 4,8 km/h (1 Bft)
11.12.2013 23:30 1,7 C 94 % 1035,2 hPa 0,0 mm S 184 4,8 km/h (1 Bft)
11.12.2013 23:35 1,7 C 94 % 1035,2 hPa 0,0 mm S 179 4,8 km/h (1 Bft)
11.12.2013 23:40 1,6 C 94 % 1035,1 hPa 0,0 mm S 169 6,4 km/h (2 Bft)
11.12.2013 23:45 1,6 C 94 % 1035,0 hPa 0,0 mm S 171 3,2 km/h (1 Bft)
11.12.2013 23:50 1,6 C 94 % 1035,0 hPa 0,0 mm S 172 1,6 km/h (1 Bft)
11.12.2013 23:55 1,6 C 94 % 1035,0 hPa 0,0 mm S 172 1,6 km/h (1 Bft)
_ Min-Zeit 23:40 00:00 14:30 - - - 00:25
Minimum _ 1,6 C 93 % 1034,5 hPa - - - 0,0 km/h (0 Bft)
_ Max-Zeit 00:00 05:55 09:35 00:00 - - 04:50
Maximum _ 3,9 C 94 % 1037,1 hPa 0,0 mm - - 9,7 km/h
O (2 Bft)
Durchschnitt _ 2,8 C 93 % 1036,0 hPa #0,0 mm O-SO - 4,3 km/h (1 Bft)